Stations météo

Publicité
Achnagart, Grande-Bretagne (99191): Température de l'air & dewpoint: 19.06.2018 14:00:00 - 25.06.2018 14:00:00 (BST)Achnagart, Grande-Bretagne (99191): Quantités de précipitations: 19.06.2018 14:00:00 - 25.06.2018 14:00:00 (BST)
Date & Time tt [°C] td [°C] rr [mm]
25.06.2018 14:00:00 - - -
25.06.2018 13:00:00 - - -
25.06.2018 12:00:00 - - -
25.06.2018 11:00:00 - - -
25.06.2018 10:00:00 16,9 10,8 0,0
25.06.2018 09:00:00 12,4 12,3 0,0
25.06.2018 08:00:00 6,2 6,0 0,0
25.06.2018 07:00:00 5,0 4,9 0,0
25.06.2018 06:00:00 4,3 4,2 0,0
25.06.2018 05:00:00 3,8 3,6 0,0
25.06.2018 04:00:00 4,7 4,6 0,0
25.06.2018 03:00:00 5,0 4,7 0,0
25.06.2018 02:00:00 5,2 4,8 0,0
25.06.2018 01:00:00 5,9 5,5 0,0
25.06.2018 00:00:00 7,1 6,6 0,0
24.06.2018 23:00:00 8,7 7,7 0,0
24.06.2018 22:00:00 10,3 7,6 0,0
24.06.2018 21:00:00 12,5 9,2 0,0
24.06.2018 20:00:00 15,0 9,0 0,0
24.06.2018 19:00:00 17,3 9,3 0,0
24.06.2018 18:00:00 18,1 9,5 0,0
24.06.2018 17:00:00 18,3 10,2 0,0
24.06.2018 16:00:00 18,3 9,3 0,0
24.06.2018 15:00:00 18,3 9,1 0,0
24.06.2018 14:00:00 18,3 10,5 0,0
24.06.2018 13:00:00 17,1 8,9 0,0
24.06.2018 12:00:00 16,5 9,7 0,0
24.06.2018 11:00:00 15,2 8,3 0,0
24.06.2018 10:00:00 13,4 7,5 0,0
24.06.2018 09:00:00 12,2 7,2 0,0
24.06.2018 08:00:00 10,6 7,5 0,0
24.06.2018 07:00:00 8,8 8,1 0,0
24.06.2018 06:00:00 8,0 6,6 0,0
24.06.2018 05:00:00 9,5 7,9 0,0
24.06.2018 04:00:00 10,1 8,5 0,0
24.06.2018 03:00:00 10,8 9,4 0,0
24.06.2018 02:00:00 11,2 9,5 0,0
24.06.2018 01:00:00 11,5 9,6 0,0
24.06.2018 00:00:00 11,4 10,0 0,0
23.06.2018 23:00:00 11,7 10,1 0,0
23.06.2018 22:00:00 12,2 10,4 0,0
23.06.2018 21:00:00 12,6 10,2 0,0
23.06.2018 20:00:00 12,7 10,2 0,0
23.06.2018 19:00:00 12,7 11,2 0,2
23.06.2018 18:00:00 12,2 11,0 0,6
23.06.2018 17:00:00 12,7 10,3 0,0
23.06.2018 16:00:00 12,8 9,7 0,0
23.06.2018 15:00:00 13,2 9,3 0,0
23.06.2018 14:00:00 13,0 8,8 0,0
23.06.2018 13:00:00 13,2 8,4 0,0
23.06.2018 12:00:00 13,2 7,2 0,0
23.06.2018 11:00:00 13,3 6,8 0,0
23.06.2018 10:00:00 13,3 7,9 0,0
23.06.2018 09:00:00 12,4 7,2 0,0
23.06.2018 08:00:00 11,9 7,2 0,0
23.06.2018 07:00:00 11,7 6,9 0,0
23.06.2018 06:00:00 11,4 6,5 0,0
23.06.2018 05:00:00 11,4 6,3 0,0
23.06.2018 04:00:00 11,3 6,8 0,0
23.06.2018 03:00:00 11,2 7,4 0,0
23.06.2018 02:00:00 11,1 7,5 0,0
23.06.2018 01:00:00 11,5 7,1 0,0
23.06.2018 00:00:00 11,3 6,9 0,0
22.06.2018 23:00:00 11,6 7,5 0,0
22.06.2018 22:00:00 11,9 6,9 0,0
22.06.2018 21:00:00 12,3 7,3 0,0
22.06.2018 20:00:00 13,0 7,3 0,0
22.06.2018 19:00:00 13,2 8,1 0,0
22.06.2018 18:00:00 12,6 8,0 0,0
22.06.2018 17:00:00 12,9 8,0 0,0
22.06.2018 16:00:00 13,3 8,0 0,0
22.06.2018 15:00:00 13,5 8,4 0,0
22.06.2018 14:00:00 13,6 8,4 0,0
22.06.2018 13:00:00 13,5 8,1 0,0
22.06.2018 12:00:00 12,6 7,9 0,0
22.06.2018 11:00:00 12,2 8,7 0,0
22.06.2018 10:00:00 10,7 8,0 0,0
22.06.2018 09:00:00 10,6 7,5 0,0
22.06.2018 08:00:00 10,6 6,8 0,0
22.06.2018 07:00:00 9,9 7,6 0,0
22.06.2018 06:00:00 9,3 7,4 0,0
22.06.2018 05:00:00 8,9 7,1 0,0
22.06.2018 04:00:00 9,1 6,9 0,0
22.06.2018 03:00:00 8,9 6,9 0,0
22.06.2018 02:00:00 9,4 6,9 0,0
22.06.2018 01:00:00 9,7 6,8 0,0
22.06.2018 00:00:00 10,2 7,1 0,0
21.06.2018 23:00:00 9,4 6,2 0,0
21.06.2018 22:00:00 11,1 5,8 0,0
21.06.2018 21:00:00 11,8 5,5 0,0
21.06.2018 20:00:00 12,4 6,1 0,0
21.06.2018 19:00:00 13,2 7,4 0,0
21.06.2018 18:00:00 14,6 6,8 0,0
21.06.2018 17:00:00 14,3 6,1 0,0
21.06.2018 16:00:00 13,5 5,8 0,0
21.06.2018 15:00:00 14,3 6,5 0,0
21.06.2018 14:00:00 13,3 5,9 0,0
21.06.2018 13:00:00 13,5 6,6 0,0
21.06.2018 12:00:00 11,7 6,1 0,0
21.06.2018 11:00:00 10,4 8,3 0,4
21.06.2018 10:00:00 10,8 6,1 0,0
21.06.2018 09:00:00 10,5 6,3 0,0
21.06.2018 08:00:00 9,0 5,9 0,0
21.06.2018 07:00:00 8,4 7,0 0,0
21.06.2018 06:00:00 8,1 6,9 2,4
21.06.2018 05:00:00 8,4 6,4 0,0
21.06.2018 04:00:00 8,6 6,4 0,0
21.06.2018 03:00:00 8,3 6,7 0,2
21.06.2018 02:00:00 8,2 6,6 0,0
21.06.2018 01:00:00 7,6 6,7 1,2
21.06.2018 00:00:00 7,4 6,1 0,8
20.06.2018 23:00:00 7,5 6,3 0,6
20.06.2018 22:00:00 7,8 6,5 0,8
20.06.2018 21:00:00 8,2 6,5 1,8
20.06.2018 20:00:00 8,8 7,6 1,0
20.06.2018 19:00:00 9,3 6,2 0,8
20.06.2018 18:00:00 10,5 5,4 1,2
20.06.2018 17:00:00 12,3 5,1 0,0
20.06.2018 16:00:00 12,9 4,6 0,0
20.06.2018 15:00:00 14,3 5,8 0,0
20.06.2018 14:00:00 12,9 6,8 0,2
20.06.2018 13:00:00 12,3 7,3 0,0
20.06.2018 12:00:00 12,2 6,0 0,0
20.06.2018 11:00:00 13,4 8,3 0,0
20.06.2018 10:00:00 12,0 8,8 0,0
20.06.2018 09:00:00 10,4 8,4 0,0
20.06.2018 08:00:00 9,9 8,2 0,0
20.06.2018 07:00:00 8,9 8,2 0,4
20.06.2018 06:00:00 8,4 7,9 1,0
20.06.2018 05:00:00 8,3 7,8 1,6
20.06.2018 04:00:00 8,3 8,0 1,2
20.06.2018 03:00:00 8,6 8,4 0,4
20.06.2018 02:00:00 8,6 8,4 0,0
20.06.2018 01:00:00 8,7 8,4 0,2
20.06.2018 00:00:00 8,9 8,5 0,2
19.06.2018 23:00:00 9,2 8,6 0,2
19.06.2018 22:00:00 9,9 9,1 0,4
19.06.2018 21:00:00 10,4 8,5 0,4
19.06.2018 20:00:00 10,8 8,3 0,4
19.06.2018 19:00:00 12,4 6,9 0,0
19.06.2018 18:00:00 13,4 4,9 0,0
19.06.2018 17:00:00 13,9 5,3 0,0
19.06.2018 16:00:00 13,2 4,6 0,0
19.06.2018 15:00:00 13,7 6,6 0,0
19.06.2018 14:00:00 12,8 4,8 0,0

tt = Température de l'air
td = dewpoint
rr = Quantités de précipitations

stations d'obs. à proximité